Retour au catalogue

STARLINK-38111

ActifCommunicationsSSO
NORAD 100152·PAYLOAD·🇺🇸 United States

Lancé Jul 25, 2026 depuis Vandenberg Space Force Base

Loading…

Prochains Passages (prochaines 24 heures)

TLE

FraisSource: Space-Track

Époque: Sep 14, 2026, 14:11 UTC

1 A0152U 26171E   26257.59165704 -.00286433  00000-0 -91473-2 0  9998
2 A0152  97.2839 290.1655 0000580  69.9607 290.1698 15.33662239  7996

Suivez STARLINK-38111 en temps réel avec AllMySat

Download on the App Store